CW2220 Weather Reports


Display with metric or nautical units.
time (UTC)temp
F
wind
direction
speed
MPH
gust
MPH
rain 1hr
in
rain 24hr
in
rain mn
in
humidity
%
barometer
mb
20260508030030 66 28 4.0 8.0 0.00 0.05 0.05 90 1014.6
20260508024541 66 48 3.0 7.0 0.00 0.05 0.05 90 1014.6
20260508023032 67 28 3.0 8.0 0.00 0.05 0.05 89 1014.2
20260508021534 67 9 4.0 11.0 0.00 0.05 0.05 89 1014.2
20260508020035 68 20 4.0 11.0 0.00 0.05 0.05 88 1014.1
20260508014538 68 344 6.0 10.0 0.00 0.05 0.05 88 1014.0
20260508013034 69 67 4.0 9.0 0.00 0.05 0.05 87 1013.6
20260508011534 69 352 3.0 8.0 0.00 0.05 0.05 86 1013.4
20260508010044 70 336 4.0 9.0 0.00 0.05 0.05 85 1013.4
20260508004535 71 5 3.0 11.0 0.00 0.05 0.05 84 1013.5
20260508003034 71 24 4.0 9.0 0.00 0.05 0.05 84 1013.5
20260508001534 72 62 4.0 10.0 0.00 0.05 0.05 83 1013.3
20260508000034 73 34 5.0 11.0 0.00 0.05 0.05 82 1013.2
20260507234533 73 355 5.0 12.0 0.00 0.05 0.05 82 1013.4
20260507233032 74 22 4.0 10.0 0.00 0.05 0.05 81 1013.3
20260507231542 74 5 6.0 15.0 0.00 0.05 0.05 82 1013.1
20260507230041 74 53 6.0 13.0 0.00 0.05 0.05 82 1013.3
20260507224534 74 313 6.0 11.0 0.00 0.05 0.05 81 1013.3
20260507223032 74 351 6.0 13.0 0.00 0.05 0.05 82 1013.3
20260507221536 74 13 6.0 14.0 0.00 0.05 0.05 82 1013.3
20260507220036 74 23 7.0 13.0 0.00 0.05 0.05 81 1013.2
20260507214536 74 5 7.0 15.0 0.00 0.05 0.05 82 1013.2
20260507213035 74 333 6.0 14.0 0.00 0.05 0.05 83 1013.2
20260507211539 74 45 7.0 14.0 0.00 0.05 0.05 83 1013.2
20260507210038 74 333 9.0 16.0 0.00 0.05 0.05 83 1013.3
20260507204533 75 341 6.0 14.0 0.00 0.05 0.05 82 1013.3
20260507203037 74 360 8.0 14.0 0.00 0.05 0.05 82 1013.4
20260507201535 74 337 7.0 13.0 0.00 0.05 0.05 83 1013.5
20260507200030 74 360 7.0 15.0 0.00 0.05 0.05 82 1013.6
20260507194536 74 43 3.0 12.0 0.00 0.05 0.05 85 1013.5
20260507193037 74 34 7.0 11.0 0.00 0.05 0.05 83 1013.7
20260507191535 73 15 5.0 14.0 0.00 0.05 0.05 84 1013.8
20260507190034 73 360 6.0 14.0 0.00 0.05 0.05 85 1013.9
20260507184538 72 58 6.0 13.0 0.00 0.05 0.05 85 1014.2
20260507183044 71 43 7.0 15.0 0.00 0.05 0.05 86 1014.6
20260507181540 70 337 5.0 10.0 0.00 0.05 0.05 87 1014.6
20260507180036 71 320 5.0 14.0 0.00 0.05 0.05 87 1014.8
20260507174535 69 355 6.0 12.0 0.00 0.05 0.05 88 1014.6
20260507173032 68 360 4.0 13.0 0.00 0.05 0.05 88 1014.6
20260507171542 68 351 7.0 13.0 0.00 0.05 0.05 88 1014.6
20260507170034 68 49 8.0 13.0 0.00 0.05 0.05 88 1014.9
20260507164543 68 22 7.0 14.0 0.00 0.05 0.05 87 1015.0
20260507163043 68 329 6.0 11.0 0.00 0.05 0.05 89 1014.8
20260507161544 67 73 6.0 13.0 0.00 0.05 0.05 91 1014.7
20260507160046 64 23 7.0 13.0 0.00 0.05 0.05 92 1015.0
20260507154538 64 360 6.0 11.0 0.00 0.05 0.05 93 1015.1
20260507153044 64 345 3.0 11.0 0.00 0.05 0.05 93 1015.4
20260507151538 63 336 5.0 13.0 0.00 0.05 0.05 94 1015.3
20260507150037 63 352 5.0 12.0 0.00 0.05 0.05 95 1015.2
20260507144536 62 14 6.0 11.0 0.00 0.05 0.05 96 1015.1
20260507143036 62 360 4.0 11.0 0.00 0.05 0.05 96 1015.1
20260507141545 62 360 7.0 12.0 0.00 0.05 0.05 96 1015.1
20260507140043 62 360 3.0 11.0 0.00 0.05 0.05 97 1014.8
20260507134535 61 347 6.0 13.0 0.00 0.05 0.05 97 1014.8
20260507133036 61 40 5.0 11.0 0.00 0.05 0.05 97 1014.9
20260507131536 61 9 6.0 12.0 0.00 0.05 0.05 97 1014.6
20260507130042 61 352 6.0 13.0 0.00 0.05 0.05 97 1014.9
20260507124546 61 5 5.0 10.0 0.00 0.05 0.05 98 1014.5
20260507123032 61 5 6.0 14.0 0.00 0.05 0.05 97 1014.3
20260507121536 61 10 4.0 15.0 0.00 0.05 0.05 98 1014.3
20260507120035 61 355 10.0 16.0 0.00 0.05 0.05 97 1013.8
20260507114532 61 10 6.0 14.0 0.00 0.05 0.05 98 1013.8
20260507113031 62 22 7.0 15.0 0.00 0.05 0.05 97 1013.6
20260507111530 62 17 4.0 14.0 0.00 0.05 0.05 98 1013.4
20260507110043 62 40 5.0 13.0 0.00 0.05 0.05 98 1013.0
20260507104537 62 5 7.0 13.0 0.00 0.05 0.05 97 1013.0
20260507103040 63 5 8.0 15.0 0.00 0.05 0.05 97 1012.7
20260507101537 64 22 9.0 16.0 0.01 0.05 0.05 97 1012.4
20260507100042 64 13 6.0 12.0 0.01 0.05 0.05 97 1012.4
20260507094535 65 347 7.0 14.0 0.01 0.05 0.05 97 1012.1
20260507093040 66 317 7.0 14.0 0.02 0.05 0.05 97 1011.8
20260507091540 66 330 4.0 11.0 0.02 0.04 0.04 97 1011.6
20260507090031 66 319 4.0 10.0 0.02 0.04 0.04 97 1011.6
20260507084537 67 351 4.0 10.0 0.03 0.04 0.04 96 1011.6
20260507083035 68 317 3.0 10.0 0.03 0.03 0.03 96 1011.4
20260507081535 71 322 6.0 17.0 0.02 0.02 0.02 95 1011.4
20260507080037 77 0 0.0 3.0 0.02 0.02 0.02 97 1011.0
20260507074532 77 260 1.0 4.0 0.01 0.01 0.01 97 1011.1
20260507073043 77 317 1.0 4.0 0.00 0.00 0.00 97 1011.1
20260507071537 77 233 1.0 5.0 0.00 0.00 0.00 96 1011.1
20260507070037 77 254 2.0 6.0 0.00 0.00 0.00 96 1011.4
20260507064535 77 199 1.0 4.0 0.00 0.00 0.00 96 1011.5
20260507063051 77 264 1.0 7.0 0.00 0.00 0.00 96 1011.5
20260507061546 77 257 2.0 6.0 0.00 0.00 0.00 96 1011.6
20260507060044 77 219 3.0 8.0 0.00 0.00 0.00 96 1011.6
20260507054542 77 237 0.0 4.0 0.00 0.00 0.00 96 1011.5
20260507053035 77 0 2.0 5.0 0.00 0.00 0.00 96 1011.5
20260507051535 77 178 1.0 8.0 0.00 0.00 0.00 96 1011.4
20260507050042 77 187 3.0 9.0 0.00 0.00 0.00 96 1011.1
20260507044533 77 219 4.0 9.0 0.00 0.00 0.00 96 1011.1
20260507043038 77 213 4.0 7.0 0.00 0.00 0.00 96 1010.9
20260507041536 77 198 4.0 9.0 0.00 0.00 0.00 95 1011.1
20260507040035 77 182 4.0 9.0 0.00 0.00 0.00 95 1011.2
20260507034538 78 192 3.0 9.0 0.00 0.00 0.00 95 1011.2
20260507033039 78 193 3.0 8.0 0.00 0.00 0.00 95 1011.2
20260507031536 78 196 3.0 11.0 0.00 0.00 0.00 95 1011.0